Find Starlink 35875

NORAD ID: 67111 Int'l Des: 2025-299 Owner: SPXS Country: US Constellation: starlink operational
LEOCIRCULAR

当前视图

正在加载3D地球...

关于 Starlink 35875

正在加载描述...

即将过境

Passes for default location (London). Set your location on the main map for personalized predictions.

高度历史

Loading altitude history...

两行轨道根数

1 67111U 25299K 26146.27403228 .00009729 00000-0 36259-3 0 9995
2 67111 43.0017 90.6660 0001165 258.1050 101.9671 15.27582320 24987
Epoch: May 26, 2026 • Age: 17 hours

当前状态

高度 489.0 km
速度 7.62 km/s
星下点 -25.82°S, 176.03°E
发射日期 Dec 15, 2025
运行时间 0.4 years
类型 internet

技术详情

分类 Payload
质量 575.00 kg
干质量 530.00 kg
总质量 575.00 kg
长度 0.30 m
直径 4.10 m
跨度 29.00 m
形状 Box + pan
制造商 SPXS
平台类型 Starlink V2MO
阶段状态 In Orbit
所有者/国家 SPXS/US

Most Searched